TimeAKST,TemperatureF,Dew PointF,Humidity,Sea Level PressureIn,VisibilityMPH,Wind Direction,Wind SpeedMPH,Gust SpeedMPH,PrecipitationIn,Events,Conditions,WindDirDegrees,DateUTC
12:53 AM,-9999,-9999,N/A,29.98,-9999.0,North,-9999.0,-,N/A,,Unknown,0,2013-11-24 09:53:00
1:53 AM,-9999,-9999,N/A,29.97,-9999.0,North,-9999.0,-,N/A,,Unknown,0,2013-11-24 10:53:00
2:53 AM,-9999,-9999,N/A,29.97,-9999.0,North,-9999.0,-,N/A,,Unknown,0,2013-11-24 11:53:00
3:53 AM,-9999,-9999,N/A,29.98,-9999.0,North,-9999.0,-,N/A,,Unknown,0,2013-11-24 12:53:00
4:53 AM,-9999,-9999,N/A,29.97,-9999.0,North,-9999.0,-,N/A,,Unknown,0,2013-11-24 13:53:00
5:53 AM,-9999,-9999,N/A,29.97,-9999.0,North,-9999.0,-,N/A,,Unknown,0,2013-11-24 14:53:00
6:53 AM,-9999,-9999,N/A,29.97,-9999.0,North,-9999.0,-,N/A,,Unknown,0,2013-11-24 15:53:00
7:53 AM,-9999,-9999,N/A,29.98,-9999.0,North,-9999.0,-,N/A,,Unknown,0,2013-11-24 16:53:00
8:53 AM,-9999,-9999,N/A,29.98,-9999.0,North,-9999.0,-,N/A,,Unknown,0,2013-11-24 17:53:00
9:53 AM,-9999,-9999,N/A,29.99,-9999.0,North,-9999.0,-,N/A,,Unknown,0,2013-11-24 18:53:00
10:53 AM,-9999,-9999,N/A,30.00,-9999.0,North,-9999.0,-,N/A,,Unknown,0,2013-11-24 19:53:00
11:53 AM,33.1,33.1,100,29.99,2.5,Variable,3.5,-,N/A,Rain,Light Rain,0,2013-11-24 20:53:00
12:01 PM,33.8,33.8,100,30.00,4.0,Calm,Calm,-,0.00,Rain,Light Rain,0,2013-11-24 21:01:00
12:53 PM,33.1,33.1,100,29.99,5.0,Calm,Calm,-,0.00,,Overcast,0,2013-11-24 21:53:00
1:19 PM,35.6,33.8,93,29.99,2.5,Variable,4.6,-,0.01,Rain,Rain,0,2013-11-24 22:19:00
1:26 PM,35.6,35.6,100,29.98,4.0,Calm,Calm,-,0.01,Rain,Light Rain,0,2013-11-24 22:26:00
1:46 PM,33.8,33.8,100,29.98,10.0,Calm,Calm,-,0.01,,Mostly Cloudy,0,2013-11-24 22:46:00
1:53 PM,34.0,34.0,100,29.98,10.0,NNE,3.5,-,0.01,,Mostly Cloudy,30,2013-11-24 22:53:00
2:53 PM,34.0,34.0,100,29.97,10.0,Variable,3.5,-,0.00,,Overcast,0,2013-11-24 23:53:00
3:53 PM,34.0,34.0,100,29.97,10.0,Calm,Calm,-,0.00,Rain,Light Rain,0,2013-11-25 00:53:00
4:22 PM,35.6,33.8,93,29.97,6.0,ENE,4.6,-,0.01,Rain,Light Rain,60,2013-11-25 01:22:00
4:53 PM,34.0,33.1,96,29.98,7.0,Calm,Calm,-,0.03,Rain,Light Rain,0,2013-11-25 01:53:00
5:14 PM,33.8,33.8,100,29.97,10.0,Calm,Calm,-,0.01,,Overcast,0,2013-11-25 02:14:00
5:53 PM,33.1,33.1,100,29.96,10.0,Calm,Calm,-,0.01,Rain,Light Rain,0,2013-11-25 02:53:00
6:53 PM,33.1,33.1,100,29.96,5.0,Calm,Calm,-,0.00,,Overcast,0,2013-11-25 03:53:00
7:44 PM,33.8,33.8,100,29.96,4.0,Calm,Calm,-,0.00,Rain,Light Rain,0,2013-11-25 04:44:00
7:53 PM,33.1,33.1,100,29.96,4.0,Calm,Calm,-,0.01,Rain,Light Rain,0,2013-11-25 04:53:00
8:16 PM,33.8,33.8,100,29.96,6.0,Calm,Calm,-,0.00,Rain,Light Rain,0,2013-11-25 05:16:00
8:26 PM,33.8,33.8,100,29.96,4.0,Calm,Calm,-,0.01,Rain,Light Rain,0,2013-11-25 05:26:00
8:41 PM,33.8,33.8,100,29.96,8.0,Calm,Calm,-,0.01,Rain,Light Rain,0,2013-11-25 05:41:00
8:53 PM,33.1,33.1,100,29.96,8.0,North,3.5,-,0.01,,Overcast,360,2013-11-25 05:53:00
9:51 PM,33.8,33.8,100,29.95,9.0,South,3.5,-,N/A,,Mostly Cloudy,190,2013-11-25 06:51:00
9:53 PM,33.1,33.1,100,29.95,10.0,Calm,Calm,-,N/A,,Mostly Cloudy,0,2013-11-25 06:53:00
10:53 PM,33.1,33.1,100,29.94,4.0,Calm,Calm,-,0.00,,Overcast,0,2013-11-25 07:53:00
11:11 PM,32.0,32.0,100,29.93,3.0,Calm,Calm,-,N/A,,Overcast,0,2013-11-25 08:11:00
11:18 PM,32.0,32.0,100,29.93,2.0,South,3.5,-,N/A,,Overcast,180,2013-11-25 08:18:00
11:28 PM,32.0,32.0,100,29.93,9.0,South,4.6,-,N/A,,Overcast,190,2013-11-25 08:28:00
11:53 PM,32.0,30.9,96,29.93,10.0,Calm,Calm,-,N/A,,Scattered Clouds,0,2013-11-25 08:53:00